{"data":{"norad_id":52646,"intl_designator":"2022-052BA","name":"STARLINK-3832","alt_names":[],"object_type":"PAYLOAD","status":"ACTIVE","operator":null,"country":"US","launch_date":"2022-05-14","launch_site_code":"AFETR","launch_vehicle":null,"mission":null,"orbit_class":"UNKNOWN","rcs_meters":null,"size_class":null,"mass_kg":null,"dimensions":null,"purposes":["comms"],"wikipedia_slug":null,"has_3d_model":false,"image_url":null,"decayed_at":null,"tle_current":{"epoch":"2026-09-20T04:31:59.267424Z","epoch_age_seconds":93369,"freshness":"FRESH","line1":"1 52646U 22052BA  26263.18888041  .00000586  00000+0  29143-4 0  9992","line2":"2 52646  53.1591  93.2334 0001221  93.1008 267.0134 15.33547051240676","mean_motion":15.33547051,"eccentricity":0.0001221,"inclination_deg":53.1591,"raan_deg":93.2334,"arg_perigee_deg":93.1008,"mean_anomaly_deg":267.0134,"bstar":2.9143e-5,"rev_number":24067,"period_min":93.899955600384,"perigee_km":464.40398306119,"apogee_km":466.07513561698,"semimajor_km":6843.3765593391,"source":"CELESTRAK","updated_at":"2026-09-20T09:00:40.099165Z"}}}